Вернуться в каталог

SHIYAN 32-01

АктивенНаукаVLEO
NORAD 66376·PAYLOAD·🇨🇳 China

Запущен Nov 8, 2025 с Yellow Sea Launch Area

Loading…

Ближайшие Пролёты (ближайшие 24 часа)

TLE

СвежийSource: Space-Track

Эпоха: Sep 14, 2026, 13:57 UTC

1 66376U 25255A   26257.58168312  .00023910  00000-0  34731-3 0  9999
2 66376  52.9912 294.0380 0007858 201.3942 158.6740 15.55669577 48114

Отслеживайте SHIYAN 32-01 в реальном времени с AllMySat

Download on the App Store